Aérodrome :
LOGIN :

S'inscrire | Disclaimer

   EN    FR    IT 

 










Légende :    VFR   VFR Marginal   IFR   IFR Intensif   IFR Très Intensif
Visi : 
Plafond : 
>= 8 km
>= 3000ft
5 à 8 km
1000 à 3000 ft
1500m à 5 km
500 à 1000 ft
800 à 1500m
200 à 500 ft
< 800m
< 200 ft
Symboles :   Orages  Brouillard  Fortes neiges  Fortes précipitations  Vent > 20 kt
SIGMETs :   Divers  Orages  Givrage  Turbulence  Onde Orograph.  Cendres Volcan.







- Altitude de l'aérodrome : 425 ft
- Code IATA : DTM


EDLW - Dortmund

DERNIER METAR :
  • 251150Z 30006KT 240V040 9999 FEW024 BKN034 18/12 Q1024

METARs EXPIRÉS :
  • 251120Z 31005KT 250V020 9999 FEW018 BKN021 18/13 Q1024
  • 251050Z VRB05KT 9999 FEW016 SCT026 OVC032 17/13 Q1024
  • 251020Z 31004KT 230V360 9999 SCT016 BKN019 OVC025 16/13 Q1024
  • 250950Z 32005KT 260V010 9999 FEW013 SCT016 OVC022 16/13 Q1024
  • 250920Z VRB03KT 9999 FEW008 BKN011 BKN024 16/13 Q1024

TAF TAF EDLW
Valide du 25 à 12h jusqu'au 26 à 12h UTC


251100Z 2512/2612 34006KT 9999 SCT030
BECMG 2601/2603 BKN013
TEMPO 2604/2609 4000 BR BKN008
BECMG 2608/2610 SCT020
Pas de NOTAMs connus pour ce terrain.



MET'MAP, la Météo Aéronautique d'un coup d'oeil ! - Copyright ORBIFLY Décembre 2007 - Disclaimer

ORBIFLY MET'MAP TEAM :

Programmation & Développement : Alexandra Zaïnal
Conception & Développement : Baudouin d'Aumeries
Co-Programmation & Développement : Marc-Olivier Méhu
Soutien technique & logistique : Manuel Goepfert

Contact : metmap@orbifly.com




SOURCES & CREDITS :

   NOAA